Regional Weather Roundup
Issued by NWS

Home | Current Version | Previous Version | Graphics & Text | Print | Product List | Glossary On
Versions: 1 2 3 4 5 6 7 8 9 10 11 12 13 14 15 16 17 18 19 20 21 22 23 24 25 26 27 28 29 30 31 32 33 34 35 36 37 38 39 40 41 42 43 44 45 46 47 48 49 50
000
ASUS44 KMEG 271910
RWRTN
TENNESSEE HOURLY STATE WEATHER ROUNDUP
NATIONAL WEATHER SERVICE MEMPHIS TN
200 PM CDT TUE JUN 27 2017

TNZ002-004-019-021-049-052-054-088>092-272000-
WEST TENNESSEE

CITY           SKY/WX    TMP DP  RH WIND       PRES   REMARKS
MEMPHIS INTL   MOSUNNY   84  61  45 CALM      30.08F
NWS MEMPHIS      N/A     82 N/A N/A MISG        N/A
JACKSON        SUNNY     81  63  54 CALM      30.10F
SOMERVILLE     SUNNY     81  64  57 VRB3      30.09F
COVINGTON      SUNNY     79  63  57 E3        30.10F
UNION CITY     SUNNY     81  57  44 VRB3      30.09F
BOLIVAR        MOSUNNY   81  63  54 VRB3      30.09F
HUNTINGDON     MOSUNNY   79  61  53 VRB5      30.10S
LEXINGTON      SUNNY     79  59  50 VRB5      30.10F
SELMER         SUNNY     77  63  61 CALM      30.10F
SAVANNAH       SUNNY     79  61  53 VRB5      30.09F
$$

TNZ008-025-027-028-033-062-065-066-272000-
NORTH MIDDLE TENNESSEE

CITY           SKY/WX    TMP DP  RH WIND       PRES   REMARKS
NASHVILLE      MOSUNNY   82  54  37 NE9       30.11F
PORTLAND       MOSUNNY   77  54  44 CALM      30.12F
CLARKSVILLE    SUNNY     79  53  40 VRB6      30.11F
SMYRNA         MOSUNNY   80  56  43 N9        30.11F
COOKEVILLE     SUNNY     77  52  41 NW3       30.12F
GALLATIN       PTSUNNY   79  55  44 NE3       30.13F
CROSSVILLE     MOSUNNY   74  52  46 MISG      30.16F
$$

TNZ061-075-076-078-094-096-097-272000-
SOUTH MIDDLE TENNESSEE

CITY           SKY/WX    TMP DP  RH WIND       PRES   REMARKS
FAYETTEVILLE   SUNNY     77  57  50 VRB7G13   30.11F
WINCHESTER     SUNNY     77  52  41 N6        30.12F
MCMINNVILLE    SUNNY     77  59  53 SE3       30.13F
COLUMBIA       SUNNY     77  55  47 VRB5      30.09F
SHELBYVILLE    SUNNY     77  54  44 VRB3      30.11F
$$

TNZ017-018-042-046-047-272000-
NORTHEAST TENNESSEE

CITY           SKY/WX    TMP DP  RH WIND       PRES   REMARKS
TRI CITIES     PTSUNNY   74  50  42 CALM      30.14F
ELIZABETHTON   PTSUNNY   72  52  49 W5        30.15F
$$

TNZ012-013-036-069-073-074-272000-
CENTRAL EAST TENNESSEE

CITY           SKY/WX    TMP DP  RH WIND       PRES   REMARKS
KNOXVILLE      MOSUNNY   76  50  40 CALM      30.11F
OAK RIDGE      SUNNY     77  51  40 CALM      30.13F
DOWNTOWN KNOXV MOSUNNY   77  52  41 SE7       30.11F
GATLINBURG     MOSUNNY   73  52  46 VRB5      30.12S
MORRISTOWN     SUNNY     75  50  41 VRB5      30.12F
JACKSBORO      MOSUNNY   77  52  41 CALM      30.16S
$$

TNZ083-085-099-272000-
SOUTHEAST TENNESSEE

CITY           SKY/WX    TMP DP  RH WIND       PRES   REMARKS
CHATTANOOGA    MOSUNNY   79  52  38 N8        30.11F
DAYTON         CLEAR     77  57  50 SE6       30.11F
$$

SKY/WX REPORTED AS FAIR MEANS FEW OR NO CLOUDS BELOW
12 THOUSAND FEET.





USA.gov is the U.S. government's official web portal to all federal, state and local government web resources and services.